SL-16 DEB, 22600

Orbit data source: Space-Track

SL-16 DEB, 22600 is space debris in LEO originally from a launch on Fri, 26 Mar 1993 UTC launched from the Tyuratam Missile And Space Complex (TTMTR). Debris objects in space refer to the collection of defunct objects orbiting the Earth. Examples of debris include non-operational satellites, rocket bodies, and fragments generated from explosions, collisions, or faulty payload assembly.

Loading next visibility...
Identifier
22600, 1993-016J
Orbit
LEO
Country
Flag of CISCIS
Related business
Manufacturer
Unknown
Mission
Spacecraft
Bus & Motor
Unknown
Mass
Unknown
Launch date (UTC)
1993-03-26 (33 years ago)
Launch vehicle
Unknown
Launch site
Tyuratam Missile And Space Complex (TTMTR)
Object type
Payload
Rocket body
Debris
Shape & HBR
Unknown shape, 0.3 m
Radar Cross Section
Medium (>0.1 m² and <1 m²)

Expand to show TLE details & history
Last TLE update: 19 hours ago

TLE from 19 hours ago
0 SL-16 DEB
1 22600U 93016J   25340.93460272  .00000123  00000-0  14028-3 0  9990
2 22600  70.9124 191.3011 0157289 127.1038 348.6989 13.82462459649083
Epoch: 2025-12-06T22:25Z
TLE epoch observation values (Epoch: 2025-12-06T22:25:49.675Z)
Latitude
58.69069°
Longitude
-75.57675°
Altitude
851.485 km
Speed
7.49 km/s
True Right ascension
22h 27m 20s
True Declination
58° 32' 23"
Sunlit
Object was in daylight at epoch
Visualization orbit readout
Latitude
Unknown
Longitude
Unknown
Altitude
Unknown
Speed
Unknown
Apparent Right ascension
Unknown
Apparent Declination
Unknown
Sunlit
N/A
Visualization observer readout
Local Sidereal Time
15:58:52
Azimuth
Unknown
Elevation
Unknown
Doppler factor
Unknown
Orbital elements
Apogee altitude
1,068.443 km
Perigee altitude
837.818 km
Semi-major axis
7,331.267 km
Eccentricity
0.01573
Inclination
70.9124°
RAAN
191.3011°
Arg. of periapsis
127.1038°
True anomaly
348.33876°
Mean anomaly
348.6989°
Eccentric anomaly
348.51953°
Mean motion
3.4576 °/min
Orbital period
104.12 mins
BSTAR
0.00014028
Loading maneuver chart data...
Computing Atmospheric mass density...
Loading historical data...
Loading historical data...
Loading historical data...
Loading historical data...
Loading historical data...
Loading historical data...
Loading historical data...

Documentation

Showing up to 5 results
|